This demonstration page uses our WeatherBlox Daily Observations layout. Learn more.

Left ArrowRight Arrow

Hourly Observations for April 25, 2015

Temp ( °F °C ) Dew Point ( °F °C ) Humidity (%) Winds ( mph kmh ) Pressure ( in mb ) Visibility ( mi km ) Precip ( " mm )
12:53 am 00:53 Cloudy 50 10 35 1.7 57 57 WSW 7 11 29.68 1005 10 16 0.00 0.00
1:53 am 01:53 Cloudy 50 10 26 -3.3 39 39 NW 5 7 29.68 1005 10 16 0.00 0.03
2:53 am 02:53 Cloudy 50 10 22 -5.6 33 33 NW 16 26 29.69 1005 10 16 0.00 0.00
3:53 am 03:53 Cloudy 48 8.9 23 -5 37 37 WNW 6 9 29.72 1006 10 16 0.00 0.00
4:53 am 04:53 Mostly Cloudy 45 7.2 24 -4.4 44 44 WNW 7 11 29.74 1007 10 16 0.00 0.00
5:53 am 05:53 Cloudy 44 6.7 26 -3.3 49 49 WNW 7 11 29.74 1007 10 16 0.00 0.00
6:53 am 06:53 Cloudy 43 6.1 30 -1.1 60 60 NW 7 11 29.75 1007 10 16 0.00 0.00
7:53 am 07:53 Cloudy 44 6.7 35 1.7 71 71 NW 7 11 29.76 1008 10 16 0.00 0.00
8:53 am 08:53 Mostly Cloudy 45 7.2 35 1.7 68 68 WNW 14 22 29.77 1008 10 16 0.00 0.00
9:45 am 09:45 Cloudy 45 7.2 36 2.2 71 71 WNW 15 24 29.80 1009 10 16 0.00 0.00
9:53 am 09:53 Cloudy 45 7.2 36 2.2 71 71 WNW 15 24 29.80 1009 10 16 0.00 0.00
10:53 am 10:53 Cloudy 47 8.3 36 2.2 66 66 WNW 14 22 29.80 1009 10 16 0.00 0.00
11:53 am 11:53 Cloudy 49 9.4 35 1.7 59 59 WNW 14 22 29.80 1009 10 16 0.00 0.00
12:21 pm 12:21 Mostly Cloudy 52 11 36 2 54 54 WNW 16 26 29.74 1007 10 16 0.00 0.00
12:53 pm 12:53 Mostly Cloudy 51 10.6 33 0.6 50 50 NW 17 28 29.79 1009 10 16 0.00 0.00
1:53 pm 13:53 Mostly Sunny 52 11.1 33 0.6 49 49 NNW 20 31 29.80 1009 10 16 0.00 0.00
2:53 pm 14:53 Mostly Sunny 54 12.2 32 0 43 43 WNW 20 31 29.81 1009 10 16 0.00 0.00
3:53 pm 15:53 Sunny 52 11.1 33 0.6 49 49 NNW 18 30 29.82 1010 10 16 0.00 0.00
4:53 pm 16:53 Sunny 50 10 34 1.1 54 54 NNW 17 28 29.86 1011 10 16 0.00 0.00
5:53 pm 17:53 Sunny 49 9.4 32 0 52 52 N 14 22 29.87 1012 10 16 0.00 0.00
6:53 pm 18:53 Sunny 47 8.3 32 0 56 56 NNW 13 20 29.90 1013 10 16 0.00 0.00
7:53 pm 19:53 Sunny 42 5.6 31 -0.6 65 65 NNW 9 15 29.92 1013 10 16 0.00 0.00
8:48 pm 20:48 Mostly Cloudy 41 5 30 -1 66 66 N 8 13 29.97 1015 10 16 0.00 0.00
8:53 pm 20:53 Mostly Cloudy 40 4.4 31 -0.6 70 70 N 9 15 29.94 1014 10 16 0.00 0.00
9:53 pm 21:53 Cloudy 40 4.4 31 -0.6 70 70 NW 12 19 29.97 1015 10 16 0.00 0.00
10:53 pm 22:53 Cloudy 39 3.9 30 -1.1 70 70 NW 10 17 29.99 1016 10 16 0.00 0.00
11:53 pm 23:53 Cloudy 39 3.9 30 -1.1 70 70 NW 14 22 30.01 1016 10 16 0.00 0.00

Powered by AerisWeather